Wetterdaten: Donnerstag, 22.10.2015
Datum Zeit Auen-Temp. Temp gefhlt Luftfeuchte Luftdruck Regen Wind Richtung Richtung Taupunkt Windben
22.10.2015 00:00 3,4 C 3,2 C 89 % 1017,9 hPa 0,0 mm 2,1 km/h (1 Bft) S-SO 157 1,8 C 0,0 km/h (0 Bft)
22.10.2015 00:05 3,4 C 3,1 C 90 % 1017,9 hPa 0,0 mm 0,0 km/h (0 Bft) S 180 1,9 C 0,0 km/h (0 Bft)
22.10.2015 00:10 3,2 C 3,1 C 86 % 1017,8 hPa 0,0 mm 0,3 km/h (0 Bft) S-SO 157 1,1 C 0,0 km/h (0 Bft)
22.10.2015 00:15 3,0 C 3,0 C 86 % 1017,8 hPa 0,0 mm 0,0 km/h (0 Bft) S-SO 157 0,9 C 0,0 km/h (0 Bft)
22.10.2015 00:20 2,6 C 2,6 C 86 % 1017,8 hPa 0,0 mm 0,0 km/h (0 Bft) S-SO 157 0,5 C 0,0 km/h (0 Bft)
22.10.2015 00:25 2,2 C 2,1 C 91 % 1017,8 hPa 0,0 mm 0,0 km/h (0 Bft) S-SO 157 0,9 C 0,0 km/h (0 Bft)
22.10.2015 00:30 2,0 C 1,8 C 91 % 1017,5 hPa 0,0 mm 0,0 km/h (0 Bft) S-SO 157 0,7 C 0,0 km/h (0 Bft)
22.10.2015 00:35 2,1 C 1,9 C 86 % 1017,5 hPa 0,0 mm 0,0 km/h (0 Bft) S-SO 157 0,0 C 0,0 km/h (0 Bft)
22.10.2015 00:40 2,1 C 1,9 C 87 % 1017,5 hPa 0,0 mm 0,0 km/h (0 Bft) SO 135 0,2 C 0,0 km/h (0 Bft)
22.10.2015 00:45 2,0 C 1,8 C 87 % 1017,5 hPa 0,0 mm 0,0 km/h (0 Bft) S 180 0,1 C 0,0 km/h (0 Bft)
22.10.2015 00:50 2,1 C 1,9 C 87 % 1017,8 hPa 0,0 mm 0,0 km/h (0 Bft) S 180 0,2 C 0,0 km/h (0 Bft)
22.10.2015 00:55 2,2 C 2,1 C 87 % 1017,8 hPa 0,0 mm 0,3 km/h (0 Bft) SO 135 0,3 C 0,0 km/h (0 Bft)
22.10.2015 01:00 2,0 C 1,8 C 92 % 1017,8 hPa 0,0 mm 0,3 km/h (0 Bft) W-SW 247 0,8 C 3,6 km/h (1 Bft)
22.10.2015 01:05 1,8 C 1,7 C 92 % 1017,8 hPa 0,0 mm 0,0 km/h (0 Bft) W-SW 247 0,6 C 0,0 km/h (0 Bft)
22.10.2015 01:10 1,8 C 1,7 C 87 % 1017,6 hPa 0,0 mm 0,0 km/h (0 Bft) W-SW 247 -0,1 C 0,0 km/h (0 Bft)
22.10.2015 01:15 1,9 C 1,9 C 88 % 1017,6 hPa 0,0 mm 0,0 km/h (0 Bft) W-SW 247 0,1 C 0,0 km/h (0 Bft)
22.10.2015 01:20 2,0 C 2,0 C 87 % 1017,6 hPa 0,0 mm 0,0 km/h (0 Bft) W-SW 247 0,1 C 0,0 km/h (0 Bft)
22.10.2015 01:25 2,2 C 2,3 C 87 % 1017,6 hPa 0,0 mm 0,0 km/h (0 Bft) S 180 0,3 C 0,0 km/h (0 Bft)
22.10.2015 01:30 2,6 C 2,7 C 88 % 1017,6 hPa 0,0 mm 0,8 km/h (0 Bft) S 180 0,8 C 2,6 km/h (1 Bft)
22.10.2015 01:35 3,0 C 2,9 C 87 % 1017,6 hPa 0,0 mm 1,0 km/h (0 Bft) S 180 1,1 C 0,0 km/h (0 Bft)
22.10.2015 01:40 3,1 C 3,0 C 87 % 1017,6 hPa 0,0 mm 0,5 km/h (0 Bft) S 180 1,2 C 4,1 km/h (1 Bft)
22.10.2015 01:45 3,2 C 3,1 C 91 % 1017,6 hPa 0,0 mm 1,0 km/h (0 Bft) SW 225 1,9 C 4,9 km/h (1 Bft)
22.10.2015 01:50 3,2 C 3,2 C 88 % 1017,4 hPa 0,0 mm 1,8 km/h (1 Bft) W-SW 247 1,4 C 8,3 km/h (2 Bft)
22.10.2015 01:55 3,3 C 3,2 C 91 % 1017,4 hPa 0,0 mm 1,3 km/h (1 Bft) S 180 2,0 C 0,0 km/h (0 Bft)
22.10.2015 02:00 3,3 C 3,2 C 88 % 1017,4 hPa 0,0 mm 1,0 km/h (0 Bft) W 270 1,5 C 4,1 km/h (1 Bft)
22.10.2015 02:05 3,5 C 3,3 C 91 % 1017,4 hPa 0,0 mm 3,6 km/h (1 Bft) SW 225 2,2 C 7,8 km/h (2 Bft)
22.10.2015 02:10 3,5 C 3,4 C 88 % 1017,6 hPa 0,0 mm 4,9 km/h (1 Bft) SW 225 1,7 C 12,7 km/h (3 Bft)
22.10.2015 02:14 3,5 C 3,4 C 91 % 1017,6 hPa 0,0 mm 2,6 km/h (1 Bft) SW 225 2,2 C 0,0 km/h (0 Bft)
22.10.2015 02:15 3,5 C 3,4 C 91 % 1017,6 hPa 0,0 mm 2,6 km/h (1 Bft) SW 225 2,2 C 0,0 km/h (0 Bft)
22.10.2015 02:20 3,6 C 3,4 C 91 % 1017,6 hPa 0,0 mm 2,3 km/h (1 Bft) W-SW 247 2,3 C 10,9 km/h (2 Bft)
22.10.2015 02:25 3,6 C 3,4 C 91 % 1017,6 hPa 0,0 mm 4,4 km/h (1 Bft) W-SW 247 2,3 C 6,2 km/h (2 Bft)
22.10.2015 02:30 3,7 C 3,4 C 91 % 1017,4 hPa 0,0 mm 5,7 km/h (1 Bft) SW 225 2,4 C 3,9 km/h (1 Bft)
22.10.2015 02:35 3,7 C 3,5 C 91 % 1017,4 hPa 0,0 mm 4,1 km/h (1 Bft) SW 225 2,4 C 3,1 km/h (1 Bft)
22.10.2015 02:40 3,7 C 3,5 C 91 % 1017,4 hPa 0,0 mm 2,6 km/h (1 Bft) SW 225 2,4 C 2,8 km/h (1 Bft)
22.10.2015 02:45 3,7 C 3,5 C 91 % 1017,4 hPa 0,0 mm 2,3 km/h (1 Bft) S 180 2,4 C 0,0 km/h (0 Bft)
22.10.2015 02:50 3,7 C 3,5 C 91 % 1017,4 hPa 0,0 mm 1,0 km/h (0 Bft) S 180 2,4 C 0,0 km/h (0 Bft)
22.10.2015 02:55 3,6 C 3,4 C 91 % 1017,4 hPa 0,0 mm 0,0 km/h (0 Bft) S 180 2,3 C 2,8 km/h (1 Bft)
22.10.2015 03:00 3,7 C 3,5 C 91 % 1017,4 hPa 0,0 mm 0,3 km/h (0 Bft) W-SW 247 2,4 C 0,0 km/h (0 Bft)
22.10.2015 03:05 3,7 C 3,5 C 91 % 1017,4 hPa 0,0 mm 0,3 km/h (0 Bft) S 180 2,4 C 0,0 km/h (0 Bft)
22.10.2015 03:10 3,6 C 3,4 C 91 % 1017,2 hPa 0,0 mm 0,0 km/h (0 Bft) W-SW 247 2,3 C 0,0 km/h (0 Bft)
22.10.2015 03:15 3,7 C 3,5 C 91 % 1017,2 hPa 0,0 mm 0,0 km/h (0 Bft) S 180 2,4 C 0,0 km/h (0 Bft)
22.10.2015 03:20 3,7 C 3,5 C 91 % 1017,2 hPa 0,0 mm 0,0 km/h (0 Bft) S 180 2,4 C 0,0 km/h (0 Bft)
22.10.2015 03:25 3,6 C 3,4 C 91 % 1017,2 hPa 0,0 mm 0,0 km/h (0 Bft) S 180 2,3 C 0,0 km/h (0 Bft)
22.10.2015 03:30 3,6 C 3,4 C 91 % 1017,1 hPa 0,0 mm 0,0 km/h (0 Bft) S 180 2,3 C 0,0 km/h (0 Bft)
22.10.2015 03:35 3,5 C 3,4 C 87 % 1017,1 hPa 0,0 mm 0,0 km/h (0 Bft) S 180 1,5 C 0,0 km/h (0 Bft)
22.10.2015 03:40 3,5 C 3,3 C 91 % 1017,1 hPa 0,0 mm 0,0 km/h (0 Bft) S 180 2,2 C 0,0 km/h (0 Bft)
22.10.2015 03:45 3,5 C 3,4 C 87 % 1017,1 hPa 0,0 mm 0,0 km/h (0 Bft) S 180 1,5 C 0,0 km/h (0 Bft)
22.10.2015 03:50 3,5 C 3,4 C 87 % 1016,9 hPa 0,0 mm 0,0 km/h (0 Bft) S 180 1,5 C 0,0 km/h (0 Bft)
22.10.2015 03:55 3,5 C 3,5 C 87 % 1016,9 hPa 0,0 mm 0,0 km/h (0 Bft) S 180 1,5 C 0,0 km/h (0 Bft)
22.10.2015 04:00 3,5 C 3,4 C 87 % 1016,9 hPa 0,0 mm 0,0 km/h (0 Bft) S 180 1,5 C 0,0 km/h (0 Bft)
22.10.2015 04:05 3,5 C 3,4 C 87 % 1016,9 hPa 0,0 mm 0,0 km/h (0 Bft) S 180 1,5 C 0,0 km/h (0 Bft)
22.10.2015 04:10 3,5 C 3,3 C 90 % 1016,9 hPa 0,0 mm 0,0 km/h (0 Bft) S 180 2,0 C 0,0 km/h (0 Bft)
22.10.2015 04:15 3,5 C 3,3 C 90 % 1016,9 hPa 0,0 mm 0,0 km/h (0 Bft) W-SW 247 2,0 C 0,0 km/h (0 Bft)
22.10.2015 04:20 3,5 C 3,3 C 90 % 1016,9 hPa 0,0 mm 0,0 km/h (0 Bft) W-SW 247 2,0 C 0,0 km/h (0 Bft)
22.10.2015 04:25 3,5 C 3,3 C 90 % 1016,9 hPa 0,0 mm 0,0 km/h (0 Bft) S 180 2,0 C 0,0 km/h (0 Bft)
22.10.2015 04:30 3,4 C 3,3 C 87 % 1016,9 hPa 0,0 mm 0,0 km/h (0 Bft) S 180 1,4 C 0,0 km/h (0 Bft)
22.10.2015 04:35 3,4 C 3,3 C 87 % 1016,9 hPa 0,0 mm 0,0 km/h (0 Bft) W 270 1,4 C 0,0 km/h (0 Bft)
22.10.2015 04:40 3,4 C 3,3 C 90 % 1016,9 hPa 0,0 mm 0,0 km/h (0 Bft) W 270 1,9 C 0,0 km/h (0 Bft)
22.10.2015 04:45 3,4 C 3,3 C 87 % 1016,9 hPa 0,0 mm 0,3 km/h (0 Bft) W-SW 247 1,4 C 4,4 km/h (1 Bft)
22.10.2015 04:50 3,4 C 3,4 C 87 % 1016,8 hPa 0,0 mm 0,5 km/h (0 Bft) SW 225 1,4 C 0,0 km/h (0 Bft)
22.10.2015 04:55 3,4 C 3,4 C 87 % 1016,8 hPa 0,0 mm 0,3 km/h (0 Bft) W-SW 247 1,4 C 0,0 km/h (0 Bft)
22.10.2015 05:00 3,5 C 3,4 C 87 % 1016,8 hPa 0,0 mm 0,8 km/h (0 Bft) SW 225 1,5 C 3,6 km/h (1 Bft)
22.10.2015 05:05 3,6 C 3,5 C 90 % 1016,8 hPa 0,0 mm 1,6 km/h (1 Bft) W-SW 247 2,1 C 4,9 km/h (1 Bft)
22.10.2015 05:10 3,7 C 3,6 C 90 % 1016,8 hPa 0,0 mm 2,8 km/h (1 Bft) W-SW 247 2,2 C 6,7 km/h (2 Bft)
22.10.2015 05:15 3,8 C 3,7 C 90 % 1016,8 hPa 0,0 mm 3,9 km/h (1 Bft) SW 225 2,3 C 3,1 km/h (1 Bft)
22.10.2015 05:20 3,8 C 3,7 C 90 % 1016,8 hPa 0,0 mm 2,6 km/h (1 Bft) S 180 2,3 C 0,0 km/h (0 Bft)
22.10.2015 05:25 3,7 C 3,6 C 90 % 1016,8 hPa 0,0 mm 0,3 km/h (0 Bft) S 180 2,2 C 0,0 km/h (0 Bft)
22.10.2015 05:30 3,7 C 3,6 C 90 % 1016,8 hPa 0,0 mm 0,3 km/h (0 Bft) S 180 2,2 C 0,0 km/h (0 Bft)
22.10.2015 05:35 3,8 C 3,6 C 90 % 1016,8 hPa 0,0 mm 1,0 km/h (0 Bft) W-SW 247 2,3 C 5,2 km/h (1 Bft)
22.10.2015 05:40 3,8 C 3,7 C 90 % 1016,8 hPa 0,0 mm 1,3 km/h (1 Bft) S 180 2,3 C 0,0 km/h (0 Bft)
22.10.2015 05:45 3,7 C 3,7 C 87 % 1016,8 hPa 0,0 mm 1,6 km/h (1 Bft) S-SW 202 1,7 C 0,0 km/h (0 Bft)
22.10.2015 05:50 3,8 C 3,8 C 87 % 1016,7 hPa 0,0 mm 1,0 km/h (0 Bft) W-SW 247 1,8 C 0,0 km/h (0 Bft)
22.10.2015 05:55 4,0 C 3,9 C 90 % 1016,7 hPa 0,0 mm 1,6 km/h (1 Bft) SW 225 2,5 C 0,0 km/h (0 Bft)
22.10.2015 06:00 4,0 C 3,9 C 90 % 1016,7 hPa 0,0 mm 1,6 km/h (1 Bft) W-SW 247 2,5 C 2,6 km/h (1 Bft)
22.10.2015 06:05 4,0 C 3,9 C 90 % 1016,7 hPa 0,0 mm 0,5 km/h (0 Bft) W 270 2,5 C 0,0 km/h (0 Bft)
22.10.2015 06:10 4,0 C 3,9 C 90 % 1016,8 hPa 0,0 mm 1,8 km/h (1 Bft) W-SW 247 2,5 C 7,0 km/h (2 Bft)
22.10.2015 06:15 4,1 C 4,0 C 90 % 1016,8 hPa 0,0 mm 3,4 km/h (1 Bft) W-SW 247 2,6 C 3,4 km/h (1 Bft)
22.10.2015 06:20 4,1 C 4,0 C 90 % 1016,8 hPa 0,0 mm 3,9 km/h (1 Bft) SW 225 2,6 C 8,0 km/h (2 Bft)
22.10.2015 06:25 4,1 C 4,0 C 90 % 1016,8 hPa 0,0 mm 4,9 km/h (1 Bft) W-SW 247 2,6 C 9,3 km/h (2 Bft)
22.10.2015 06:30 4,1 C 3,9 C 90 % 1016,8 hPa 0,0 mm 5,4 km/h (1 Bft) W-SW 247 2,6 C 8,0 km/h (2 Bft)
22.10.2015 06:35 4,1 C 3,9 C 90 % 1016,8 hPa 0,0 mm 5,7 km/h (1 Bft) W-SW 247 2,6 C 7,5 km/h (2 Bft)
22.10.2015 06:40 4,1 C 4,0 C 89 % 1016,8 hPa 0,0 mm 4,4 km/h (1 Bft) W 270 2,5 C 3,4 km/h (1 Bft)
22.10.2015 06:45 4,1 C 4,0 C 89 % 1016,8 hPa 0,0 mm 3,9 km/h (1 Bft) S-SW 202 2,5 C 0,0 km/h (0 Bft)
22.10.2015 06:50 4,1 C 4,0 C 89 % 1017,0 hPa 0,0 mm 4,7 km/h (1 Bft) W-SW 247 2,5 C 9,3 km/h (2 Bft)
22.10.2015 06:55 4,1 C 4,0 C 89 % 1017,0 hPa 0,0 mm 3,9 km/h (1 Bft) S 180 2,5 C 0,0 km/h (0 Bft)
22.10.2015 07:00 4,0 C 3,9 C 89 % 1017,0 hPa 0,0 mm 3,4 km/h (1 Bft) S-SW 202 2,4 C 4,4 km/h (1 Bft)
22.10.2015 07:05 4,0 C 3,9 C 89 % 1017,0 hPa 0,0 mm 2,3 km/h (1 Bft) W-SW 247 2,4 C 5,2 km/h (1 Bft)
22.10.2015 07:10 4,1 C 4,0 C 89 % 1016,8 hPa 0,0 mm 3,4 km/h (1 Bft) S-SO 157 2,5 C 4,7 km/h (1 Bft)
22.10.2015 07:15 4,1 C 3,9 C 89 % 1016,8 hPa 0,0 mm 5,4 km/h (1 Bft) SW 225 2,5 C 9,3 km/h (2 Bft)
22.10.2015 07:20 4,1 C 3,8 C 89 % 1016,8 hPa 0,0 mm 6,0 km/h (2 Bft) SW 225 2,5 C 5,4 km/h (1 Bft)
22.10.2015 07:25 4,0 C 3,8 C 89 % 1016,8 hPa 0,0 mm 5,7 km/h (1 Bft) SW 225 2,4 C 8,3 km/h (2 Bft)
22.10.2015 07:30 4,0 C 3,7 C 89 % 1016,9 hPa 0,0 mm 6,0 km/h (2 Bft) S 180 2,4 C 11,1 km/h (2 Bft)
22.10.2015 07:35 4,0 C 3,7 C 88 % 1016,9 hPa 0,0 mm 6,7 km/h (2 Bft) S 180 2,2 C 3,1 km/h (1 Bft)
22.10.2015 07:40 3,9 C 3,7 C 89 % 1016,9 hPa 0,0 mm 5,7 km/h (1 Bft) S 180 2,3 C 7,3 km/h (2 Bft)
22.10.2015 07:45 3,9 C 3,8 C 89 % 1016,9 hPa 0,0 mm 3,6 km/h (1 Bft) SW 225 2,3 C 9,3 km/h (2 Bft)
22.10.2015 07:50 4,0 C 3,9 C 88 % 1017,1 hPa 0,0 mm 4,7 km/h (1 Bft) S-SW 202 2,2 C 6,2 km/h (2 Bft)
22.10.2015 07:55 4,0 C 3,9 C 88 % 1017,1 hPa 0,0 mm 4,7 km/h (1 Bft) W-SW 247 2,2 C 6,0 km/h (2 Bft)
22.10.2015 08:00 4,0 C 3,9 C 88 % 1017,1 hPa 0,0 mm 2,8 km/h (1 Bft) S 180 2,2 C 0,0 km/h (0 Bft)
22.10.2015 08:05 4,0 C 3,9 C 88 % 1017,1 hPa 0,0 mm 1,6 km/h (1 Bft) S 180 2,2 C 0,0 km/h (0 Bft)
22.10.2015 08:10 4,1 C 4,0 C 88 % 1017,2 hPa 0,0 mm 0,8 km/h (0 Bft) S 180 2,3 C 3,1 km/h (1 Bft)
22.10.2015 08:14 4,1 C 4,0 C 88 % 1017,2 hPa 0,0 mm 0,5 km/h (0 Bft) S 180 2,3 C 0,0 km/h (0 Bft)
22.10.2015 08:16 4,1 C 4,0 C 88 % 1017,2 hPa 0,0 mm 0,5 km/h (0 Bft) S 180 2,3 C 0,0 km/h (0 Bft)
22.10.2015 08:20 4,1 C 4,0 C 88 % 1017,2 hPa 0,0 mm 0,3 km/h (0 Bft) SW 225 2,3 C 0,0 km/h (0 Bft)
22.10.2015 08:25 4,1 C 4,1 C 85 % 1017,2 hPa 0,0 mm 2,1 km/h (1 Bft) W-SW 247 1,8 C 5,4 km/h (1 Bft)
22.10.2015 08:30 4,2 C 4,2 C 85 % 1017,2 hPa 0,0 mm 4,1 km/h (1 Bft) S 180 1,9 C 0,0 km/h (0 Bft)
22.10.2015 08:35 4,3 C 4,3 C 85 % 1017,2 hPa 0,0 mm 2,3 km/h (1 Bft) S-SW 202 2,0 C 0,0 km/h (0 Bft)
22.10.2015 08:40 4,3 C 4,4 C 85 % 1017,2 hPa 0,0 mm 0,3 km/h (0 Bft) S 180 2,0 C 0,0 km/h (0 Bft)
22.10.2015 08:45 4,4 C 4,6 C 85 % 1017,2 hPa 0,0 mm 0,5 km/h (0 Bft) S 180 2,1 C 0,0 km/h (0 Bft)
22.10.2015 08:50 4,4 C 4,7 C 85 % 1017,4 hPa 0,0 mm 0,3 km/h (0 Bft) W-SW 247 2,1 C 0,0 km/h (0 Bft)
22.10.2015 08:55 4,5 C 4,8 C 85 % 1017,4 hPa 0,0 mm 1,6 km/h (1 Bft) W-SW 247 2,2 C 2,8 km/h (1 Bft)
22.10.2015 09:00 4,5 C 4,9 C 85 % 1017,4 hPa 0,0 mm 1,6 km/h (1 Bft) W 270 2,2 C 3,4 km/h (1 Bft)
22.10.2015 09:05 4,6 C 5,1 C 85 % 1017,4 hPa 0,0 mm 0,8 km/h (0 Bft) W-SW 247 2,3 C 0,0 km/h (0 Bft)
22.10.2015 09:10 4,6 C 5,2 C 85 % 1017,6 hPa 0,0 mm 0,8 km/h (0 Bft) W-SW 247 2,3 C 0,0 km/h (0 Bft)
22.10.2015 09:15 4,9 C 5,4 C 85 % 1017,6 hPa 0,0 mm 2,1 km/h (1 Bft) S 180 2,6 C 2,8 km/h (1 Bft)
22.10.2015 09:20 4,9 C 5,5 C 84 % 1017,6 hPa 0,0 mm 2,3 km/h (1 Bft) W-SW 247 2,4 C 4,9 km/h (1 Bft)
22.10.2015 09:25 5,0 C 5,7 C 84 % 1017,6 hPa 0,0 mm 2,8 km/h (1 Bft) W 270 2,5 C 8,0 km/h (2 Bft)
22.10.2015 09:30 5,0 C 5,8 C 84 % 1017,6 hPa 0,0 mm 3,6 km/h (1 Bft) SW 225 2,5 C 5,4 km/h (1 Bft)
22.10.2015 09:35 5,1 C 6,0 C 83 % 1017,6 hPa 0,0 mm 4,7 km/h (1 Bft) W-SW 247 2,5 C 6,2 km/h (2 Bft)
22.10.2015 09:40 5,2 C 6,0 C 83 % 1017,6 hPa 0,0 mm 5,2 km/h (1 Bft) W-SW 247 2,6 C 4,1 km/h (1 Bft)
22.10.2015 09:45 5,2 C 6,2 C 83 % 1017,6 hPa 0,0 mm 4,9 km/h (1 Bft) W 270 2,6 C 6,7 km/h (2 Bft)
22.10.2015 09:50 5,3 C 6,4 C 82 % 1017,2 hPa 0,0 mm 3,4 km/h (1 Bft) W-SW 247 2,5 C 3,4 km/h (1 Bft)
22.10.2015 09:55 5,6 C 6,7 C 82 % 1017,2 hPa 0,0 mm 1,8 km/h (1 Bft) W 270 2,8 C 3,6 km/h (1 Bft)
22.10.2015 10:00 5,7 C 6,9 C 82 % 1017,2 hPa 0,0 mm 1,0 km/h (0 Bft) W-SW 247 2,9 C 0,0 km/h (0 Bft)
22.10.2015 10:05 5,9 C 7,1 C 82 % 1017,2 hPa 0,0 mm 1,8 km/h (1 Bft) W 270 3,1 C 7,0 km/h (2 Bft)
22.10.2015 10:10 5,9 C 7,2 C 81 % 1017,7 hPa 0,0 mm 4,4 km/h (1 Bft) NW 315 2,9 C 4,7 km/h (1 Bft)
22.10.2015 10:15 6,0 C 6,9 C 80 % 1017,7 hPa 0,0 mm 7,0 km/h (2 Bft) W-NW 292 2,8 C 5,2 km/h (1 Bft)
22.10.2015 10:20 6,1 C 7,4 C 80 % 1017,7 hPa 0,0 mm 5,7 km/h (1 Bft) O 90 2,9 C 14,5 km/h (3 Bft)
22.10.2015 10:25 6,1 C 7,4 C 79 % 1017,7 hPa 0,0 mm 4,4 km/h (1 Bft) W-NW 292 2,7 C 6,5 km/h (2 Bft)
22.10.2015 10:30 6,1 C 7,5 C 79 % 1017,7 hPa 0,0 mm 4,9 km/h (1 Bft) SW 225 2,7 C 3,4 km/h (1 Bft)
22.10.2015 10:35 6,3 C 8,0 C 78 % 1017,7 hPa 0,0 mm 3,9 km/h (1 Bft) NW 315 2,8 C 3,4 km/h (1 Bft)
22.10.2015 10:40 6,4 C 8,5 C 78 % 1017,7 hPa 0,0 mm 4,4 km/h (1 Bft) NW 315 2,8 C 13,2 km/h (3 Bft)
22.10.2015 10:45 6,6 C 9,7 C 77 % 1017,7 hPa 0,0 mm 6,2 km/h (2 Bft) NW 315 2,9 C 16,1 km/h (3 Bft)
22.10.2015 10:50 6,6 C 9,8 C 76 % 1017,6 hPa 0,0 mm 7,8 km/h (2 Bft) NW 315 2,7 C 14,5 km/h (3 Bft)
22.10.2015 10:55 6,6 C 9,5 C 74 % 1017,6 hPa 0,0 mm 9,3 km/h (2 Bft) N-NW 337 2,3 C 6,7 km/h (2 Bft)
22.10.2015 11:00 6,6 C 9,5 C 74 % 1017,6 hPa 0,0 mm 8,5 km/h (2 Bft) NW 315 2,3 C 7,0 km/h (2 Bft)
22.10.2015 11:05 6,5 C 9,8 C 73 % 1017,6 hPa 0,0 mm 6,0 km/h (2 Bft) W-NW 292 2,0 C 4,7 km/h (1 Bft)
22.10.2015 11:10 6,5 C 10,2 C 73 % 1017,9 hPa 0,0 mm 5,2 km/h (1 Bft) SW 225 2,0 C 11,4 km/h (2 Bft)
22.10.2015 11:15 6,6 C 11,0 C 73 % 1017,9 hPa 0,0 mm 6,0 km/h (2 Bft) W-SW 247 2,1 C 14,5 km/h (3 Bft)
22.10.2015 11:20 6,7 C 11,5 C 72 % 1017,9 hPa 0,0 mm 7,3 km/h (2 Bft) NW 315 2,0 C 16,3 km/h (3 Bft)
22.10.2015 11:25 6,9 C 11,2 C 72 % 1017,9 hPa 0,0 mm 9,3 km/h (2 Bft) NW 315 2,2 C 23,8 km/h (4 Bft)
22.10.2015 11:30 7,1 C 11,7 C 72 % 1018,0 hPa 0,0 mm 10,1 km/h (2 Bft) W 270 2,4 C 12,4 km/h (3 Bft)
22.10.2015 11:35 7,3 C 11,7 C 71 % 1018,0 hPa 0,0 mm 10,1 km/h (2 Bft) NW 315 2,4 C 14,8 km/h (3 Bft)
22.10.2015 11:40 7,4 C 11,3 C 71 % 1018,0 hPa 0,0 mm 10,6 km/h (2 Bft) NW 315 2,5 C 14,5 km/h (3 Bft)
22.10.2015 11:45 7,6 C 11,4 C 70 % 1018,0 hPa 0,0 mm 9,8 km/h (2 Bft) W-NW 292 2,5 C 10,6 km/h (2 Bft)
22.10.2015 11:50 7,6 C 11,4 C 70 % 1018,4 hPa 0,0 mm 10,1 km/h (2 Bft) NW 315 2,5 C 12,7 km/h (3 Bft)
22.10.2015 11:55 7,5 C 10,1 C 70 % 1018,4 hPa 0,0 mm 10,1 km/h (2 Bft) W 270 2,4 C 6,7 km/h (2 Bft)
22.10.2015 12:00 8,0 C 10,7 C 70 % 1018,4 hPa 0,0 mm 9,1 km/h (2 Bft) W 270 2,9 C 9,6 km/h (2 Bft)
22.10.2015 12:05 8,3 C 11,8 C 70 % 1018,4 hPa 0,0 mm 7,5 km/h (2 Bft) W 270 3,2 C 12,7 km/h (3 Bft)
22.10.2015 12:10 7,8 C 10,8 C 70 % 1018,4 hPa 0,0 mm 7,5 km/h (2 Bft) NW 315 2,7 C 12,4 km/h (3 Bft)
22.10.2015 12:15 7,4 C 9,7 C 70 % 1018,4 hPa 0,0 mm 5,7 km/h (1 Bft) W-NW 292 2,3 C 5,4 km/h (1 Bft)
22.10.2015 12:20 7,3 C 9,2 C 70 % 1018,4 hPa 0,0 mm 6,7 km/h (2 Bft) NW 315 2,2 C 11,4 km/h (2 Bft)
22.10.2015 12:25 7,3 C 8,1 C 70 % 1018,4 hPa 0,0 mm 8,5 km/h (2 Bft) W-NW 292 2,2 C 14,0 km/h (3 Bft)
22.10.2015 12:30 7,3 C 7,7 C 70 % 1018,9 hPa 0,0 mm 8,3 km/h (2 Bft) NW 315 2,2 C 6,5 km/h (2 Bft)
22.10.2015 12:35 7,6 C 8,7 C 70 % 1018,9 hPa 0,0 mm 6,7 km/h (2 Bft) W-NW 292 2,5 C 14,0 km/h (3 Bft)
22.10.2015 12:40 7,8 C 9,0 C 70 % 1018,9 hPa 0,0 mm 7,5 km/h (2 Bft) NW 315 2,7 C 7,5 km/h (2 Bft)
22.10.2015 12:45 7,8 C 9,2 C 70 % 1018,9 hPa 0,0 mm 7,5 km/h (2 Bft) W-NW 292 2,7 C 0,0 km/h (0 Bft)
22.10.2015 12:50 8,2 C 10,6 C 69 % 1018,2 hPa 0,0 mm 6,5 km/h (2 Bft) W-NW 292 2,9 C 12,4 km/h (3 Bft)
22.10.2015 12:55 8,2 C 11,7 C 69 % 1018,2 hPa 0,0 mm 7,0 km/h (2 Bft) NW 315 2,9 C 13,7 km/h (3 Bft)
22.10.2015 13:00 8,4 C 12,1 C 69 % 1018,2 hPa 0,0 mm 7,5 km/h (2 Bft) W-NW 292 3,0 C 11,1 km/h (2 Bft)
22.10.2015 13:05 8,1 C 12,7 C 68 % 1018,2 hPa 0,0 mm 7,5 km/h (2 Bft) NW 315 2,6 C 8,5 km/h (2 Bft)
22.10.2015 13:10 8,0 C 13,0 C 68 % 1018,4 hPa 0,0 mm 7,0 km/h (2 Bft) W-SW 247 2,5 C 4,9 km/h (1 Bft)
22.10.2015 13:15 8,3 C 13,3 C 68 % 1018,4 hPa 0,0 mm 7,3 km/h (2 Bft) N-NW 337 2,7 C 12,9 km/h (3 Bft)
22.10.2015 13:20 8,5 C 13,5 C 68 % 1018,4 hPa 0,0 mm 7,3 km/h (2 Bft) NW 315 2,9 C 12,7 km/h (3 Bft)
22.10.2015 13:25 8,7 C 13,5 C 67 % 1018,4 hPa 0,0 mm 8,0 km/h (2 Bft) W-NW 292 2,9 C 6,2 km/h (2 Bft)
22.10.2015 13:30 9,0 C 13,8 C 67 % 1018,6 hPa 0,0 mm 6,5 km/h (2 Bft) N-NW 337 3,2 C 4,7 km/h (1 Bft)
22.10.2015 13:35 9,6 C 13,6 C 66 % 1018,6 hPa 0,0 mm 7,3 km/h (2 Bft) W 270 3,6 C 12,4 km/h (3 Bft)
22.10.2015 13:40 9,7 C 13,6 C 66 % 1018,6 hPa 0,0 mm 8,0 km/h (2 Bft) NW 315 3,7 C 10,4 km/h (2 Bft)
22.10.2015 13:45 9,8 C 13,6 C 65 % 1018,6 hPa 0,0 mm 8,3 km/h (2 Bft) N-NO 22 3,5 C 4,9 km/h (1 Bft)
22.10.2015 13:50 9,8 C 13,9 C 65 % 1018,7 hPa 0,0 mm 7,8 km/h (2 Bft) W 270 3,5 C 6,5 km/h (2 Bft)
22.10.2015 13:55 9,8 C 13,7 C 64 % 1018,7 hPa 0,0 mm 7,8 km/h (2 Bft) N-NW 337 3,3 C 13,7 km/h (3 Bft)
22.10.2015 14:00 10,0 C 13,5 C 64 % 1018,7 hPa 0,0 mm 9,3 km/h (2 Bft) NW 315 3,5 C 9,3 km/h (2 Bft)
22.10.2015 14:05 10,1 C 13,5 C 64 % 1018,7 hPa 0,0 mm 9,1 km/h (2 Bft) N-NW 337 3,6 C 6,7 km/h (2 Bft)
22.10.2015 14:10 10,3 C 13,5 C 64 % 1018,9 hPa 0,0 mm 8,5 km/h (2 Bft) NW 315 3,8 C 13,7 km/h (3 Bft)
22.10.2015 14:15 10,5 C 13,6 C 64 % 1018,9 hPa 0,0 mm 8,5 km/h (2 Bft) NW 315 4,0 C 13,2 km/h (3 Bft)
22.10.2015 14:17 10,5 C 13,6 C 64 % 1018,9 hPa 0,0 mm 8,5 km/h (2 Bft) NW 315 4,0 C 13,2 km/h (3 Bft)
22.10.2015 14:20 10,7 C 13,6 C 64 % 1018,9 hPa 0,0 mm 8,0 km/h (2 Bft) W 270 4,2 C 4,7 km/h (1 Bft)
22.10.2015 14:25 10,5 C 13,7 C 63 % 1018,9 hPa 0,0 mm 8,5 km/h (2 Bft) W 270 3,8 C 6,7 km/h (2 Bft)
22.10.2015 14:30 10,4 C 13,8 C 62 % 1019,2 hPa 0,0 mm 9,6 km/h (2 Bft) W-NW 292 3,4 C 14,8 km/h (3 Bft)
22.10.2015 14:35 10,3 C 13,6 C 62 % 1019,2 hPa 0,0 mm 9,6 km/h (2 Bft) NW 315 3,3 C 12,9 km/h (3 Bft)
22.10.2015 14:40 10,4 C 13,6 C 62 % 1019,2 hPa 0,0 mm 9,8 km/h (2 Bft) W 270 3,4 C 12,4 km/h (3 Bft)
22.10.2015 14:45 10,7 C 13,9 C 63 % 1019,2 hPa 0,0 mm 8,3 km/h (2 Bft) NW 315 3,9 C 8,3 km/h (2 Bft)
22.10.2015 14:50 10,8 C 14,2 C 63 % 1019,8 hPa 0,0 mm 7,5 km/h (2 Bft) SW 225 4,0 C 7,5 km/h (2 Bft)
22.10.2015 14:55 10,9 C 14,4 C 63 % 1019,8 hPa 0,0 mm 7,3 km/h (2 Bft) NW 315 4,1 C 7,0 km/h (2 Bft)
22.10.2015 15:00 10,6 C 13,7 C 62 % 1019,8 hPa 0,0 mm 9,1 km/h (2 Bft) NW 315 3,6 C 15,5 km/h (3 Bft)
22.10.2015 15:05 10,5 C 13,0 C 62 % 1019,8 hPa 0,0 mm 10,9 km/h (2 Bft) O 90 3,5 C 12,2 km/h (2 Bft)
22.10.2015 15:10 10,5 C 13,1 C 62 % 1019,9 hPa 0,0 mm 10,1 km/h (2 Bft) NW 315 3,5 C 6,5 km/h (2 Bft)
22.10.2015 15:15 10,6 C 13,3 C 62 % 1019,9 hPa 0,0 mm 9,8 km/h (2 Bft) N-NW 337 3,6 C 4,4 km/h (1 Bft)
22.10.2015 15:20 10,6 C 13,5 C 62 % 1019,9 hPa 0,0 mm 9,1 km/h (2 Bft) NW 315 3,6 C 16,6 km/h (3 Bft)
22.10.2015 15:25 10,8 C 13,7 C 62 % 1019,9 hPa 0,0 mm 8,3 km/h (2 Bft) W 270 3,8 C 9,1 km/h (2 Bft)
22.10.2015 15:30 10,6 C 13,4 C 62 % 1019,1 hPa 0,0 mm 8,8 km/h (2 Bft) N-NW 337 3,6 C 10,1 km/h (2 Bft)
22.10.2015 15:35 10,4 C 12,7 C 62 % 1019,1 hPa 0,0 mm 8,3 km/h (2 Bft) W 270 3,4 C 4,9 km/h (1 Bft)
22.10.2015 15:40 10,4 C 12,5 C 63 % 1019,1 hPa 0,0 mm 8,5 km/h (2 Bft) W-NW 292 3,7 C 10,4 km/h (2 Bft)
22.10.2015 15:45 10,8 C 13,2 C 63 % 1019,1 hPa 0,0 mm 7,5 km/h (2 Bft) W-NW 292 4,0 C 6,0 km/h (2 Bft)
22.10.2015 15:50 10,9 C 13,4 C 63 % 1018,8 hPa 0,0 mm 8,3 km/h (2 Bft) NW 315 4,1 C 14,2 km/h (3 Bft)
22.10.2015 15:55 10,4 C 12,7 C 62 % 1018,8 hPa 0,0 mm 8,0 km/h (2 Bft) W 270 3,4 C 8,8 km/h (2 Bft)
22.10.2015 16:00 10,0 C 12,1 C 63 % 1018,8 hPa 0,0 mm 7,0 km/h (2 Bft) NW 315 3,3 C 10,6 km/h (2 Bft)
22.10.2015 16:05 9,7 C 11,1 C 63 % 1018,8 hPa 0,0 mm 6,7 km/h (2 Bft) W-SW 247 3,0 C 3,9 km/h (1 Bft)
22.10.2015 16:10 9,6 C 10,8 C 63 % 1018,6 hPa 0,0 mm 6,0 km/h (2 Bft) W 270 2,9 C 4,9 km/h (1 Bft)
22.10.2015 16:15 9,5 C 10,5 C 64 % 1018,6 hPa 0,0 mm 4,9 km/h (1 Bft) W-NW 292 3,0 C 8,8 km/h (2 Bft)
22.10.2015 16:20 9,4 C 10,3 C 64 % 1018,6 hPa 0,0 mm 5,7 km/h (1 Bft) NW 315 2,9 C 5,2 km/h (1 Bft)
22.10.2015 16:25 9,3 C 9,9 C 64 % 1018,6 hPa 0,0 mm 7,3 km/h (2 Bft) W 270 2,8 C 12,7 km/h (3 Bft)
22.10.2015 16:30 9,2 C 9,8 C 64 % 1018,4 hPa 0,0 mm 7,0 km/h (2 Bft) NW 315 2,8 C 5,4 km/h (1 Bft)
22.10.2015 16:35 9,2 C 9,5 C 64 % 1018,4 hPa 0,0 mm 7,8 km/h (2 Bft) W 270 2,8 C 8,0 km/h (2 Bft)
22.10.2015 16:40 9,2 C 9,4 C 64 % 1018,4 hPa 0,0 mm 8,0 km/h (2 Bft) W-NW 292 2,8 C 12,9 km/h (3 Bft)
22.10.2015 16:45 9,1 C 9,3 C 64 % 1018,4 hPa 0,0 mm 8,0 km/h (2 Bft) NW 315 2,7 C 9,8 km/h (2 Bft)
22.10.2015 16:50 9,1 C 9,3 C 64 % 1018,4 hPa 0,0 mm 7,8 km/h (2 Bft) W-NW 292 2,7 C 10,6 km/h (2 Bft)
22.10.2015 16:55 9,0 C 9,5 C 64 % 1018,4 hPa 0,0 mm 5,7 km/h (1 Bft) NO 45 2,6 C 6,2 km/h (2 Bft)
22.10.2015 17:00 8,9 C 9,5 C 65 % 1018,4 hPa 0,0 mm 5,2 km/h (1 Bft) W-SW 247 2,7 C 6,2 km/h (2 Bft)
22.10.2015 17:05 8,9 C 9,4 C 65 % 1018,4 hPa 0,0 mm 5,7 km/h (1 Bft) W 270 2,7 C 5,4 km/h (1 Bft)
22.10.2015 17:10 8,8 C 9,3 C 65 % 1018,2 hPa 0,0 mm 5,2 km/h (1 Bft) W-NW 292 2,6 C 6,0 km/h (2 Bft)
22.10.2015 17:15 8,8 C 9,2 C 65 % 1018,2 hPa 0,0 mm 5,2 km/h (1 Bft) W 270 2,6 C 8,8 km/h (2 Bft)
22.10.2015 17:20 8,7 C 8,9 C 65 % 1018,2 hPa 0,0 mm 6,5 km/h (2 Bft) NW 315 2,5 C 13,7 km/h (3 Bft)
22.10.2015 17:25 8,6 C 8,7 C 66 % 1018,2 hPa 0,0 mm 6,7 km/h (2 Bft) W-SW 247 2,6 C 9,8 km/h (2 Bft)
22.10.2015 17:30 8,5 C 8,7 C 66 % 1018,5 hPa 0,0 mm 6,0 km/h (2 Bft) W 270 2,5 C 5,2 km/h (1 Bft)
22.10.2015 17:35 8,4 C 8,6 C 66 % 1018,5 hPa 0,0 mm 4,7 km/h (1 Bft) W 270 2,4 C 6,5 km/h (2 Bft)
22.10.2015 17:40 8,3 C 8,4 C 66 % 1018,5 hPa 0,0 mm 3,4 km/h (1 Bft) W 270 2,3 C 4,7 km/h (1 Bft)
22.10.2015 17:45 8,2 C 8,3 C 67 % 1018,5 hPa 0,0 mm 2,3 km/h (1 Bft) W-NW 292 2,4 C 3,1 km/h (1 Bft)
22.10.2015 17:50 8,1 C 8,1 C 67 % 1019,4 hPa 0,0 mm 2,6 km/h (1 Bft) W-SW 247 2,3 C 0,0 km/h (0 Bft)
22.10.2015 17:55 7,9 C 8,0 C 67 % 1019,4 hPa 0,0 mm 1,8 km/h (1 Bft) W-SW 247 2,2 C 2,8 km/h (1 Bft)
22.10.2015 18:00 7,8 C 7,8 C 68 % 1019,4 hPa 0,0 mm 1,0 km/h (0 Bft) NW 315 2,3 C 4,1 km/h (1 Bft)
22.10.2015 18:05 7,7 C 7,7 C 68 % 1019,4 hPa 0,0 mm 0,5 km/h (0 Bft) W 270 2,2 C 0,0 km/h (0 Bft)
22.10.2015 18:10 7,6 C 7,6 C 68 % 1018,6 hPa 0,0 mm 0,8 km/h (0 Bft) SW 225 2,1 C 3,6 km/h (1 Bft)
22.10.2015 18:15 7,5 C 7,5 C 69 % 1018,6 hPa 0,0 mm 1,3 km/h (1 Bft) W-NW 292 2,2 C 4,1 km/h (1 Bft)
22.10.2015 18:20 7,5 C 7,5 C 69 % 1018,6 hPa 0,0 mm 2,8 km/h (1 Bft) SW 225 2,2 C 5,2 km/h (1 Bft)
22.10.2015 18:25 7,4 C 7,4 C 69 % 1018,6 hPa 0,0 mm 2,8 km/h (1 Bft) W-SW 247 2,1 C 0,0 km/h (0 Bft)
22.10.2015 18:30 7,3 C 7,3 C 69 % 1018,8 hPa 0,0 mm 0,8 km/h (0 Bft) W-SW 247 2,0 C 4,7 km/h (1 Bft)
22.10.2015 18:35 7,3 C 7,3 C 69 % 1018,8 hPa 0,0 mm 1,0 km/h (0 Bft) W-NW 292 2,0 C 0,0 km/h (0 Bft)
22.10.2015 18:40 7,2 C 7,2 C 69 % 1018,8 hPa 0,0 mm 1,0 km/h (0 Bft) W 270 1,9 C 0,0 km/h (0 Bft)
22.10.2015 18:45 7,2 C 7,1 C 69 % 1018,8 hPa 0,0 mm 2,1 km/h (1 Bft) SW 225 1,9 C 5,2 km/h (1 Bft)
22.10.2015 18:50 7,2 C 7,1 C 70 % 1018,8 hPa 0,0 mm 2,8 km/h (1 Bft) W 270 2,1 C 3,9 km/h (1 Bft)
22.10.2015 18:55 7,1 C 7,0 C 70 % 1018,8 hPa 0,0 mm 2,1 km/h (1 Bft) W 270 2,0 C 8,8 km/h (2 Bft)
22.10.2015 19:00 7,0 C 7,0 C 70 % 1018,8 hPa 0,0 mm 1,3 km/h (1 Bft) SW 225 1,9 C 0,0 km/h (0 Bft)
22.10.2015 19:05 7,0 C 7,0 C 70 % 1018,8 hPa 0,0 mm 1,0 km/h (0 Bft) W-SW 247 1,9 C 0,0 km/h (0 Bft)
22.10.2015 19:10 7,0 C 6,9 C 70 % 1019,0 hPa 0,0 mm 0,8 km/h (0 Bft) W-SW 247 1,9 C 0,0 km/h (0 Bft)
22.10.2015 19:15 6,9 C 6,9 C 70 % 1019,0 hPa 0,0 mm 1,6 km/h (1 Bft) W-SW 247 1,8 C 4,7 km/h (1 Bft)
22.10.2015 19:20 6,9 C 6,8 C 70 % 1019,0 hPa 0,0 mm 1,0 km/h (0 Bft) W-NW 292 1,8 C 0,0 km/h (0 Bft)
22.10.2015 19:25 6,8 C 6,8 C 71 % 1019,0 hPa 0,0 mm 0,8 km/h (0 Bft) SW 225 1,9 C 0,0 km/h (0 Bft)
22.10.2015 19:30 6,9 C 6,8 C 71 % 1019,1 hPa 0,0 mm 1,6 km/h (1 Bft) W-SW 247 2,0 C 6,2 km/h (2 Bft)
22.10.2015 19:35 6,9 C 6,8 C 71 % 1019,1 hPa 0,0 mm 2,1 km/h (1 Bft) NW 315 2,0 C 4,7 km/h (1 Bft)
22.10.2015 19:40 6,9 C 6,8 C 71 % 1019,1 hPa 0,0 mm 1,8 km/h (1 Bft) NW 315 2,0 C 3,6 km/h (1 Bft)
22.10.2015 19:45 6,9 C 6,9 C 71 % 1019,1 hPa 0,0 mm 2,3 km/h (1 Bft) N-NW 337 2,0 C 7,0 km/h (2 Bft)
22.10.2015 19:50 7,0 C 6,9 C 71 % 1019,1 hPa 0,0 mm 3,4 km/h (1 Bft) SW 225 2,1 C 4,9 km/h (1 Bft)
22.10.2015 19:55 7,0 C 7,0 C 71 % 1019,1 hPa 0,0 mm 3,4 km/h (1 Bft) SW 225 2,1 C 3,6 km/h (1 Bft)
22.10.2015 20:00 7,0 C 7,0 C 71 % 1019,1 hPa 0,0 mm 3,1 km/h (1 Bft) W 270 2,1 C 8,3 km/h (2 Bft)
22.10.2015 20:05 6,9 C 6,9 C 72 % 1019,1 hPa 0,0 mm 3,4 km/h (1 Bft) W-SW 247 2,2 C 5,4 km/h (1 Bft)
22.10.2015 20:10 7,0 C 7,0 C 72 % 1019,4 hPa 0,0 mm 3,9 km/h (1 Bft) W 270 2,3 C 11,1 km/h (2 Bft)
22.10.2015 20:15 7,0 C 7,0 C 72 % 1019,4 hPa 0,0 mm 4,1 km/h (1 Bft) W-NW 292 2,3 C 8,0 km/h (2 Bft)
22.10.2015 20:18 7,0 C 7,0 C 72 % 1019,4 hPa 0,0 mm 4,1 km/h (1 Bft) W-NW 292 2,3 C 8,0 km/h (2 Bft)
22.10.2015 20:20 7,1 C 7,0 C 72 % 1019,4 hPa 0,0 mm 4,4 km/h (1 Bft) W 270 2,4 C 4,7 km/h (1 Bft)
22.10.2015 20:25 7,1 C 7,0 C 72 % 1019,4 hPa 0,0 mm 4,4 km/h (1 Bft) N-NO 22 2,4 C 2,8 km/h (1 Bft)
22.10.2015 20:30 7,1 C 7,1 C 72 % 1019,7 hPa 0,0 mm 5,2 km/h (1 Bft) W 270 2,4 C 12,7 km/h (3 Bft)
22.10.2015 20:35 7,1 C 7,1 C 72 % 1019,7 hPa 0,0 mm 4,9 km/h (1 Bft) NO 45 2,4 C 8,5 km/h (2 Bft)
22.10.2015 20:40 7,2 C 7,2 C 72 % 1019,7 hPa 0,0 mm 5,7 km/h (1 Bft) NW 315 2,5 C 5,4 km/h (1 Bft)
22.10.2015 20:45 7,2 C 7,1 C 72 % 1019,7 hPa 0,0 mm 6,2 km/h (2 Bft) W-NW 292 2,5 C 6,5 km/h (2 Bft)
22.10.2015 20:50 7,2 C 7,1 C 72 % 1019,8 hPa 0,0 mm 6,7 km/h (2 Bft) W-NW 292 2,5 C 13,5 km/h (3 Bft)
22.10.2015 20:55 7,2 C 7,1 C 72 % 1019,8 hPa 0,0 mm 6,5 km/h (2 Bft) W-SW 247 2,5 C 3,4 km/h (1 Bft)
22.10.2015 21:00 7,1 C 7,1 C 72 % 1019,8 hPa 0,0 mm 4,4 km/h (1 Bft) W-NW 292 2,4 C 0,0 km/h (0 Bft)
22.10.2015 21:05 7,1 C 7,1 C 72 % 1019,8 hPa 0,0 mm 2,8 km/h (1 Bft) SW 225 2,4 C 5,4 km/h (1 Bft)
22.10.2015 21:10 7,0 C 7,1 C 72 % 1019,6 hPa 0,0 mm 2,8 km/h (1 Bft) NW 315 2,3 C 0,0 km/h (0 Bft)
22.10.2015 21:15 7,0 C 7,0 C 73 % 1019,6 hPa 0,0 mm 1,8 km/h (1 Bft) W 270 2,5 C 0,0 km/h (0 Bft)
22.10.2015 21:20 7,0 C 7,0 C 73 % 1019,6 hPa 0,0 mm 1,8 km/h (1 Bft) O-SO 112 2,5 C 11,1 km/h (2 Bft)
22.10.2015 21:25 7,0 C 7,0 C 73 % 1019,6 hPa 0,0 mm 2,1 km/h (1 Bft) SO 135 2,5 C 0,0 km/h (0 Bft)
22.10.2015 21:30 7,0 C 7,0 C 73 % 1019,9 hPa 0,0 mm 2,1 km/h (1 Bft) SW 225 2,5 C 4,1 km/h (1 Bft)
22.10.2015 21:35 7,1 C 7,0 C 73 % 1019,9 hPa 0,0 mm 1,8 km/h (1 Bft) S-SO 157 2,6 C 0,0 km/h (0 Bft)
22.10.2015 21:40 7,1 C 7,0 C 73 % 1019,9 hPa 0,0 mm 2,3 km/h (1 Bft) W-NW 292 2,6 C 5,4 km/h (1 Bft)
22.10.2015 21:45 7,1 C 7,1 C 73 % 1019,9 hPa 0,0 mm 2,8 km/h (1 Bft) W-SW 247 2,6 C 6,2 km/h (2 Bft)
22.10.2015 21:50 7,0 C 7,0 C 73 % 1020,1 hPa 0,0 mm 3,1 km/h (1 Bft) S-SW 202 2,5 C 0,0 km/h (0 Bft)
22.10.2015 21:55 6,9 C 6,9 C 74 % 1020,1 hPa 0,0 mm 1,0 km/h (0 Bft) O-NO 67 2,6 C 0,0 km/h (0 Bft)
22.10.2015 22:00 6,8 C 6,9 C 75 % 1020,1 hPa 0,0 mm 0,0 km/h (0 Bft) W-NW 292 2,7 C 0,0 km/h (0 Bft)
22.10.2015 22:05 6,9 C 6,9 C 75 % 1020,1 hPa 0,0 mm 0,3 km/h (0 Bft) S-SW 202 2,8 C 0,0 km/h (0 Bft)
22.10.2015 22:10 6,9 C 6,9 C 75 % 1020,1 hPa 0,0 mm 0,5 km/h (0 Bft) W-SW 247 2,8 C 0,0 km/h (0 Bft)
22.10.2015 22:15 6,9 C 6,9 C 75 % 1020,1 hPa 0,0 mm 0,3 km/h (0 Bft) W 270 2,8 C 0,0 km/h (0 Bft)
22.10.2015 22:20 6,9 C 6,9 C 75 % 1020,1 hPa 0,0 mm 0,3 km/h (0 Bft) NW 315 2,8 C 0,0 km/h (0 Bft)
22.10.2015 22:25 6,9 C 6,9 C 75 % 1020,1 hPa 0,0 mm 0,3 km/h (0 Bft) W-NW 292 2,8 C 0,0 km/h (0 Bft)
22.10.2015 22:30 6,8 C 6,9 C 75 % 1020,4 hPa 0,0 mm 0,0 km/h (0 Bft) NW 315 2,7 C 0,0 km/h (0 Bft)
22.10.2015 22:35 6,9 C 6,9 C 75 % 1020,4 hPa 0,0 mm 0,0 km/h (0 Bft) N 360 2,8 C 0,0 km/h (0 Bft)
22.10.2015 22:40 6,9 C 6,9 C 76 % 1020,4 hPa 0,0 mm 0,0 km/h (0 Bft) W-SW 247 3,0 C 0,0 km/h (0 Bft)
22.10.2015 22:45 6,9 C 7,0 C 75 % 1020,4 hPa 0,0 mm 0,3 km/h (0 Bft) W-NW 292 2,8 C 6,0 km/h (2 Bft)
22.10.2015 22:50 7,0 C 7,0 C 75 % 1020,6 hPa 0,0 mm 1,0 km/h (0 Bft) N-NW 337 2,9 C 3,9 km/h (1 Bft)
22.10.2015 22:55 7,0 C 7,0 C 76 % 1020,6 hPa 0,0 mm 2,6 km/h (1 Bft) W-SW 247 3,1 C 0,0 km/h (0 Bft)
22.10.2015 23:00 7,0 C 7,0 C 76 % 1020,6 hPa 0,0 mm 2,6 km/h (1 Bft) O-NO 67 3,1 C 0,0 km/h (0 Bft)
22.10.2015 23:05 7,0 C 7,0 C 76 % 1020,6 hPa 0,0 mm 1,0 km/h (0 Bft) S-SW 202 3,1 C 0,0 km/h (0 Bft)
22.10.2015 23:10 7,0 C 7,0 C 76 % 1020,8 hPa 0,0 mm 1,6 km/h (1 Bft) W-SW 247 3,1 C 0,0 km/h (0 Bft)
22.10.2015 23:15 7,0 C 7,0 C 76 % 1020,8 hPa 0,0 mm 1,8 km/h (1 Bft) W-NW 292 3,1 C 3,4 km/h (1 Bft)
22.10.2015 23:20 7,0 C 7,0 C 76 % 1020,8 hPa 0,0 mm 1,8 km/h (1 Bft) SO 135 3,1 C 7,3 km/h (2 Bft)
22.10.2015 23:25 6,9 C 6,9 C 77 % 1020,8 hPa 0,0 mm 2,6 km/h (1 Bft) SW 225 3,2 C 4,1 km/h (1 Bft)
22.10.2015 23:30 6,9 C 6,8 C 77 % 1020,9 hPa 0,0 mm 3,4 km/h (1 Bft) SW 225 3,2 C 0,0 km/h (0 Bft)
22.10.2015 23:35 6,8 C 6,7 C 77 % 1020,9 hPa 0,0 mm 3,1 km/h (1 Bft) SW 225 3,1 C 3,4 km/h (1 Bft)
22.10.2015 23:40 6,8 C 6,7 C 78 % 1020,9 hPa 0,0 mm 3,6 km/h (1 Bft) SW 225 3,2 C 4,9 km/h (1 Bft)
22.10.2015 23:45 6,7 C 6,7 C 78 % 1020,9 hPa 0,0 mm 2,6 km/h (1 Bft) W-SW 247 3,1 C 4,9 km/h (1 Bft)
22.10.2015 23:50 6,8 C 6,7 C 78 % 1020,9 hPa 0,0 mm 1,8 km/h (1 Bft) SW 225 3,2 C 4,7 km/h (1 Bft)
22.10.2015 23:55 6,7 C 6,7 C 78 % 1020,9 hPa 0,0 mm 1,6 km/h (1 Bft) W-SW 247 3,1 C 0,0 km/h (0 Bft)
_ Min-Zeit 01:10 01:10 15:55 06:05 - 22:40 - - 01:10 23:55
Minimum _ 1,8 C 1,7 C 62 % 1016,7 hPa - 0,0 km/h (0 Bft) - - -0,1 C 0,0 km/h (0 Bft)
_ Max-Zeit 15:50 14:55 01:05 23:55 23:55 15:05 - - 14:20 11:25
Maximum _ 10,9 C 14,4 C 92 % 1020,9 hPa 0,0 mm 10,9 km/h
O (2 Bft)
- - 4,2 C 23,8 km/h
NW (4 Bft)
Durchschnitt _ 6,2 C 6,9 C 78 % 1018,3 hPa #0,0 mm 3,7 km/h (1 Bft) NW - 2,4 C 5,0 km/h (1 Bft)